Location: Chandler
(33.3060°N, 111.8410°W)
Time: 11:44:19
(UTC-07:00)

Amateur Radio Satellites - All Passes

Search period start: 06 May 2016 11:14
Search period end: 07 May 2016 11:14
Location: Chandler, 33.3060°N, 111.8410°W

Satellite Date Start Highest point End Downlink Frequencies (MHz)
Time Altitude Azimuth
50 SAT 06 May 11:19:29 11:22:31 24° 97° (E) 11:25:33 437.505
ISS 06 May 11:19:32 11:20:12 10° 28° (NNE) 11:20:51 145.825
DUCHIFAT 1 06 May 11:20:41 11:24:57 86° 261° (W) 11:29:14 145.980
JAS-2 06 May 11:23:35 11:27:17 16° 60° (ENE) 11:31:13 435.910
AO-85 06 May 11:25:08 11:30:34 80° 299° (WNW) 11:36:02 145.980
QB50P2 06 May 11:26:54 11:31:08 60° 259° (W) 11:35:23 145.880/145.840
POLYITAN 1 06 May 11:29:07 11:33:21 59° 260° (W) 11:37:36 437.675
POPSAT HIP 1 06 May 11:30:36 11:34:49 58° 259° (W) 11:39:04 437.405
QB50P1 06 May 11:33:29 11:37:39 52° 260° (W) 11:41:50 145.935-145.965
AIST 1 06 May 11:34:40 11:38:46 39° 268° (W) 11:42:50
AISAT 06 May 11:40:37 11:44:53 44° 99° (E) 11:49:07 437.250
GONETS M04 06 May 11:40:53 11:49:36 77° 267° (W) 11:58:15
BUGSAT 1 06 May 11:45:24 11:49:38 86° 76° (ENE) 11:53:55 437.445
CUBEBUG 1 06 May 12:05:44 12:10:11 85° 104° (ESE) 12:14:35 437.445
NANOSAT C BR1 06 May 12:06:57 12:10:16 22° 264° (W) 12:13:37 145.865
Oscar 19 06 May 12:10:43 12:14:30 21° 67° (ENE) 12:18:20 437.125/150
ESTCUBE 1 06 May 12:15:51 12:20:14 50° 286° (WNW) 12:24:37 437.505/2401.250
UKube-1 06 May 12:25:27 12:29:48 80° 284° (WNW) 12:34:07 .
DX 1 06 May 12:26:42 12:31:03 61° 285° (WNW) 12:35:21 434.975-435.025
PHONESAT 2.4 06 May 12:33:40 12:36:45 52° 21° (NNE) 12:39:50 2401.200-2431.200
Gurwin Techsat 1B 06 May 12:39:01 12:42:08 16° 65° (ENE) 12:45:14 435.225
O/OREOS (USA 219) 06 May 12:39:37 12:42:32 17° 100° (E) 12:45:28 437.305
VELOX 1 06 May 12:44:27 12:48:28 33° 288° (WNW) 12:52:28 145.980
Cosmos 2499 06 May 12:46:28 12:54:04 49° 269° (W) 13:02:11 435.465 / 435.565
SPROUT 06 May 12:47:38 12:51:57 85° 281° (W) 12:56:12 437.525
50 SAT 06 May 12:53:48 12:56:04 16° 290° (WNW) 12:58:20 437.505
ISS 06 May 12:53:50 12:57:05 84° 43° (NE) 13:00:20 145.825
JAS-2 06 May 13:05:27 13:11:21 71° 259° (WSW) 13:18:08 435.910
TISAT 1 06 May 13:06:27 13:10:25 39° 99° (E) 13:14:19 437.305
AO-85 06 May 13:09:50 13:11:51 12° 315° (NW) 13:13:51 145.980
AISAT 06 May 13:18:36 13:20:56 14° 293° (WNW) 13:23:15 437.250
ITUPSAT 1 06 May 13:27:35 13:27:47 10° 92° (E) 13:27:58 437.325
SWISSCUBE 06 May 13:32:29 13:35:03 14° 94° (E) 13:37:37 437.505
ITAMSAT 1 06 May 13:38:04 13:42:08 24° 68° (ENE) 13:46:12 435.822/435.867
GONETS M04 06 May 13:43:29 13:44:50 10° 283° (WNW) 13:46:11
Oscar 19 06 May 13:48:43 13:53:31 38° 261° (W) 13:58:21 437.125/150
AO-7 06 May 13:54:57 14:01:00 23° 58° (ENE) 14:07:03 29.400- 29.500
BEESAT 06 May 14:03:49 14:07:58 29° 98° (E) 14:12:06 436.000
PCSat 06 May 14:03:51 14:09:09 59° 112° (ESE) 14:14:30 145.827
PHONESAT 2.4 06 May 14:10:54 14:13:26 22° 215° (SW) 14:15:58 2401.200-2431.200
Gurwin Techsat 1B 06 May 14:16:23 14:21:34 55° 260° (W) 14:26:47 435.225
O/OREOS (USA 219) 06 May 14:17:22 14:21:36 36° 294° (WNW) 14:25:50 437.305
CUSAT 1 06 May 14:27:19 14:30:47 83° 98° (E) 14:35:23 437.405
SO-50 06 May 14:39:34 14:43:55 36° 56° (NE) 14:48:07 436.795
TISAT 1 06 May 14:43:34 14:45:41 14° 293° (WNW) 14:47:47 437.305
ITUPSAT 1 06 May 15:01:13 15:05:57 64° 285° (WNW) 15:10:39 437.325
KKS-1 06 May 15:02:03 15:04:09 13° 93° (E) 15:06:14 437.445
SWISSCUBE 06 May 15:08:28 15:13:01 46° 287° (WNW) 15:17:34 437.505
ITAMSAT 1 06 May 15:16:44 15:21:22 33° 262° (W) 15:26:02 435.822/435.867
HORYU 2 06 May 15:23:07 15:25:41 15° 67° (ENE) 15:28:15 437.375
MOZHAYETS 4 06 May 15:34:41 15:38:11 21° 95° (E) 15:41:40
BEESAT 06 May 15:41:51 15:45:34 23° 291° (WNW) 15:49:16 436.000
AO-7 06 May 15:44:45 15:52:59 70° 255° (WSW) 16:01:16 29.400- 29.500
PCSat 06 May 15:49:26 15:52:56 17° 308° (NW) 15:56:27 145.827
DANDE 06 May 15:50:11 15:52:29 20° 289° (WNW) 15:55:11 436.750
BEESAT 3 06 May 15:51:21 15:53:19 13° 108° (ESE) 15:55:16 437.485
JUGNU 06 May 16:04:01 16:07:56 18° 171° (S) 16:11:52 437.505
BEESAT 2 06 May 16:07:41 16:08:59 11° 108° (ESE) 16:10:18 435.950
SO-50 06 May 16:20:51 16:24:04 19° 251° (WSW) 16:27:12 436.795
NOAA 18 06 May 16:28:04 16:30:44 14° 63° (ENE) 16:33:25 137.9125
KKS-1 06 May 16:36:39 16:40:53 44° 287° (WNW) 16:45:05 437.445
STARS 06 May 16:41:24 16:45:48 80° 284° (WNW) 16:50:10 437.465
Cosmos 2491 06 May 16:50:34 16:58:54 44° 78° (ENE) 17:07:06 435.465 / 435.565
YUBILEINY 06 May 16:57:22 17:03:36 22° 82° (E) 17:09:47 435.215
HORYU 2 06 May 16:57:40 17:01:52 40° 261° (W) 17:06:05 437.375
MOZHAYETS 4 06 May 17:11:23 17:15:17 29° 289° (WNW) 17:19:13
SRMSAT 06 May 17:12:29 17:15:34 14° 166° (SSE) 17:18:39 437.500
CUTE-I 06 May 17:16:36 17:21:07 29° 69° (ENE) 17:25:39 437.470
BRITE-PL 06 May 17:19:36 17:23:45 28° 69° (ENE) 17:28:10 437.365/2234.400
BEESAT 3 06 May 17:26:59 17:30:38 36° 302° (WNW) 17:34:19 437.485
CUBESAT XI-V 06 May 17:30:47 17:35:16 43° 99° (E) 17:39:44 437.345
BEESAT 2 06 May 17:42:36 17:46:23 44° 301° (WNW) 17:50:13 435.950
NOAA 15 06 May 17:43:44 17:49:00 86° 75° (ENE) 17:54:18 137.62
DOVE 4 06 May 17:45:35 17:47:36 12° 64° (ENE) 17:49:38 437.250
LilacSat-2 06 May 17:51:46 17:55:34 56° 76° (ENE) 17:59:22 437.200
JUGNU 06 May 17:51:56 17:56:18 21° 181° (S) 18:00:40 437.505
Cubesat XI-IV 06 May 18:01:28 18:06:48 82° 75° (ENE) 18:12:08 437.490
NOAA 18 06 May 18:05:17 18:10:46 68° 257° (WSW) 18:16:15 137.9125
GOMX 1 06 May 18:08:15 18:13:01 43° 72° (ENE) 18:18:05 467.674
AIST 2 06 May 18:13:20 18:16:19 20° 110° (ESE) 18:19:20 435.215
RS-15 06 May 18:30:38 18:35:26 14° 97° (E) 18:40:17 29.354- 29.394
M-CUBED/EXP-1 PRIME 06 May 18:31:24 18:36:06 69° 71° (ENE) 18:40:43 437.505
AUBIESAT-1 06 May 18:46:12 18:50:52 82° 71° (ENE) 18:55:26 437.475
Cosmos 2491 06 May 18:47:49 18:55:23 34° 274° (W) 19:02:54 435.465 / 435.565
CUTE 1.7 + AOD 2 06 May 18:48:28 18:50:08 12° 67° (ENE) 18:51:50 437.475
YUBILEINY 06 May 18:50:56 18:59:34 64° 279° (W) 19:08:13 435.215
CUTE-I 06 May 18:56:32 19:01:03 28° 263° (W) 19:05:36 437.470
STRAND 1 06 May 18:57:13 19:01:34 28° 97° (E) 19:05:54 437.568
BRITE-PL 06 May 18:58:01 19:02:06 27° 266° (W) 19:06:29 437.365/2234.400
SRMSAT 06 May 18:59:40 19:04:05 21° 176° (S) 19:08:30 437.500
SEEDS 06 May 19:06:59 19:09:16 15° 69° (ENE) 19:11:34 437.485
CUBESAT XI-V 06 May 19:09:27 19:12:15 16° 293° (WNW) 19:15:02 437.345
HO-68 06 May 19:15:57 19:22:43 48° 69° (ENE) 19:29:30 435.675
DOVE 4 06 May 19:19:27 19:24:33 71° 259° (WSW) 19:29:51 437.250
AAUSAT CUBESAT 2 06 May 19:28:34 19:30:48 14° 68° (ENE) 19:33:02 437.432
CINEMA 3 06 May 19:30:42 19:35:30 47° 74° (ENE) 19:40:17 145.822/145.860
Cosmos 2504 06 May 19:33:17 19:40:27 63° 93° (E) 19:47:29 435.465 / 435.565
JUGNU 06 May 19:41:06 19:44:39 16° 191° (SSW) 19:48:12 437.505
GOMX 1 06 May 19:47:48 19:51:17 18° 268° (W) 19:54:53 467.674
CUBEBUG 2 06 May 19:49:03 19:52:42 23° 70° (ENE) 19:56:18 437.445
CANX-2 06 May 19:49:23 19:53:35 83° 77° (ENE) 19:57:48 2200.000
AIST 2 06 May 19:51:00 19:54:35 28° 304° (NW) 19:58:13 435.215
ZACube-1 06 May 19:55:19 19:56:27 11° 66° (ENE) 19:57:33 437.345
AO-85 06 May 20:02:15 20:06:17 28° 53° (NE) 20:10:00 145.980
PRISM 06 May 20:09:11 20:12:47 28° 98° (E) 20:16:22 437.425
M-CUBED/EXP-1 PRIME 06 May 20:10:35 20:10:53 10° 263° (W) 20:11:10 437.505
CUTE 1.7 + AOD 2 06 May 20:21:32 20:25:33 44° 261° (W) 20:29:35 437.475
Oscar 11 06 May 20:25:42 20:29:22 28° 72° (ENE) 20:33:02 145.826/435.025
RS-15 06 May 20:34:35 20:45:43 79° 114° (ESE) 20:57:30 29.354- 29.394
COMPASS 1 06 May 20:35:30 20:39:34 61° 260° (W) 20:43:40 437.405
STRAND 1 06 May 20:36:19 20:40:37 28° 291° (WNW) 20:44:56 437.568
SEEDS 06 May 20:40:49 20:44:38 36° 262° (W) 20:48:29 437.485
FUNcube-1 06 May 20:43:19 20:47:28 38° 74° (ENE) 20:51:33 145.935
SRMSAT 06 May 20:48:19 20:52:38 21° 186° (S) 20:56:58 437.500
AAUSAT CUBESAT 2 06 May 21:02:11 21:05:57 35° 262° (W) 21:09:44 437.432
HO-68 06 May 21:04:41 21:10:33 27° 263° (W) 21:16:27 435.675
UWE-3 06 May 21:07:15 21:11:52 67° 259° (W) 21:16:24 435.000/436.395/437.385
CINEMA 3 06 May 21:09:46 21:12:46 16° 267° (W) 21:15:46 145.822/145.860
CUBEBUG 2 06 May 21:25:00 21:29:07 29° 263° (W) 21:33:12 437.445
ZACube-1 06 May 21:27:45 21:32:13 58° 260° (W) 21:36:37 437.345
Cosmos 2504 06 May 21:29:41 21:34:18 18° 289° (WNW) 21:38:54 435.465 / 435.565
DELFI C3 06 May 21:38:07 21:42:03 80° 257° (WSW) 21:46:00 145.870
AO-85 06 May 21:43:01 21:46:33 23° 251° (WSW) 21:49:52 145.980
PRISM 06 May 21:44:56 21:47:52 19° 291° (WNW) 21:50:48 437.425
HUMSAT D 06 May 21:51:37 21:55:46 59° 76° (ENE) 21:59:52 437.325/437.525
UNISAT 6 06 May 21:58:28 22:01:32 19° 95° (E) 22:04:34 437.425
Oscar 11 06 May 22:02:20 22:05:27 19° 265° (W) 22:08:34 145.826/435.025
TIGRISAT 06 May 22:13:53 22:17:32 27° 97° (E) 22:21:09 435.000
FUNcube-1 06 May 22:21:07 22:23:47 15° 266° (W) 22:26:26 145.935
AISAT 06 May 22:34:22 22:37:54 24° 70° (ENE) 22:41:28 437.250
SRMSAT 06 May 22:38:32 22:41:08 13° 195° (SSW) 22:43:45 437.500
ANTELSAT 06 May 22:39:34 22:43:49 62° 101° (E) 22:48:01 437.575/2403.000
GONETS M04 06 May 22:42:02 22:48:47 25° 83° (E) 22:55:30
RS-15 06 May 22:49:52 22:59:25 30° 318° (NW) 23:09:28 29.354- 29.394
O/OREOS (USA 219) 06 May 22:53:10 22:56:07 17° 61° (ENE) 22:59:03 437.305
PCSat 06 May 22:56:44 23:00:45 21° 54° (NE) 23:04:47 145.827
CUBEBUG 1 06 May 22:57:28 23:01:34 40° 73° (ENE) 23:05:42 437.445
DUCHIFAT 1 06 May 23:09:56 23:13:02 20° 95° (E) 23:16:07 145.980
ESTCUBE 1 06 May 23:10:47 23:15:16 88° 77° (ENE) 23:19:46 437.505/2401.250
UKube-1 06 May 23:15:41 23:19:50 48° 74° (ENE) 23:24:01 .
QB50P2 06 May 23:16:24 23:20:05 28° 97° (E) 23:23:43 145.880/145.840
DX 1 06 May 23:17:42 23:22:01 65° 75° (ENE) 23:26:22 434.975-435.025
POLYITAN 1 06 May 23:18:36 23:22:18 29° 98° (E) 23:25:57 437.675
POPSAT HIP 1 06 May 23:19:55 23:23:38 29° 98° (E) 23:27:17 437.405
QB50P1 06 May 23:22:36 23:26:24 32° 98° (E) 23:30:10 145.935-145.965
50 SAT 06 May 23:26:52 23:30:29 64° 259° (W) 23:34:06 437.505
Cosmos 2499 06 May 23:27:49 23:32:59 22° 85° (E) 23:38:09 435.465 / 435.565
BUGSAT 1 06 May 23:32:45 23:35:24 17° 94° (E) 23:38:03 437.445
UNISAT 6 06 May 23:34:36 23:38:13 27° 289° (WNW) 23:41:49 437.425
VELOX 1 06 May 23:36:55 23:41:18 65° 259° (WSW) 23:45:45 145.980
SPROUT 06 May 23:36:58 23:41:01 41° 74° (ENE) 23:45:05 437.525
TIGRISAT 06 May 23:50:59 23:54:01 19° 291° (WNW) 23:57:02 435.000
NANOSAT C BR1 06 May 23:54:26 23:58:39 80° 101° (E) 00:02:50 145.865
TISAT 1 06 May 23:54:54 23:57:47 18° 69° (ENE) 00:00:40 437.305
AIST 1 06 May 23:59:08 00:03:20 54° 279° (W) 00:07:37
AISAT 07 May 00:10:36 00:14:14 25° 263° (W) 00:17:55 437.250
JAS-2 07 May 00:19:46 00:26:00 25° 93° (E) 00:32:00 435.910
O/OREOS (USA 219) 07 May 00:31:30 00:35:37 36° 256° (WSW) 00:39:42 437.305
CUBEBUG 1 07 May 00:35:42 00:37:59 14° 267° (W) 00:40:17 437.445
GONETS M04 07 May 00:36:13 00:44:54 59° 280° (W) 00:53:35
SWISSCUBE 07 May 00:36:43 00:37:56 11° 64° (ENE) 00:39:09 437.505
PCSat 07 May 00:39:11 00:44:22 47° 249° (WSW) 00:49:31 145.827
DUCHIFAT 1 07 May 00:45:12 00:48:40 25° 289° (WNW) 00:52:06 145.980
DANDE 07 May 00:46:47 00:52:18 22° 73° (ENE) 00:58:18 436.750
QB50P2 07 May 00:52:44 00:55:39 18° 291° (WNW) 00:58:32 145.880/145.840
UKube-1 07 May 00:54:49 00:56:06 11° 267° (W) 00:57:23 .
POLYITAN 1 07 May 00:54:59 00:57:51 18° 291° (WNW) 01:00:42 437.675
POPSAT HIP 1 07 May 00:56:18 00:59:09 18° 291° (WNW) 01:02:00 437.405
QB50P1 07 May 00:59:14 01:01:53 16° 291° (WNW) 01:04:32 145.935-145.965
CUSAT 1 07 May 01:03:04 01:10:42 55° 79° (E) 01:18:30 437.405
BEESAT 07 May 01:06:41 01:10:17 22° 69° (ENE) 01:13:54 436.000
BUGSAT 1 07 May 01:07:11 01:10:48 29° 288° (WNW) 01:14:22 437.445
RS-15 07 May 01:14:28 01:17:59 11° 353° (N) 01:21:31 29.354- 29.394
SPROUT 07 May 01:15:03 01:17:06 13° 267° (W) 01:19:11 437.525
Cosmos 2499 07 May 01:18:44 01:25:32 49° 281° (W) 01:32:23 435.465 / 435.565
TISAT 1 07 May 01:29:26 01:33:10 30° 262° (W) 01:36:57 437.305
BEESAT 3 07 May 01:48:05 01:51:37 30° 56° (ENE) 01:55:07 437.485
ITAMSAT 1 07 May 01:57:04 01:58:26 11° 92° (E) 01:59:48 435.822/435.867
ITUPSAT 1 07 May 02:03:32 02:08:18 89° 260° (W) 02:13:05 437.325
JAS-2 07 May 02:03:33 02:11:15 59° 288° (WNW) 02:18:40 435.910
Oscar 19 07 May 02:04:04 02:09:16 78° 285° (WNW) 02:14:25 437.125/150
BEESAT 2 07 May 02:04:42 02:08:07 27° 55° (NE) 02:11:31 435.950
SWISSCUBE 07 May 02:10:25 02:15:08 65° 258° (WSW) 02:19:52 437.505
DANDE 07 May 02:28:01 02:35:25 71° 265° (W) 02:43:47 436.750
MOZHAYETS 4 07 May 02:34:00 02:36:07 13° 67° (ENE) 02:38:13
Gurwin Techsat 1B 07 May 02:36:40 02:42:00 85° 104° (ESE) 02:47:19 435.225
BEESAT 07 May 02:43:39 02:47:51 31° 262° (W) 02:52:04 436.000
CUSAT 1 07 May 02:46:00 02:52:24 28° 272° (W) 02:58:54 437.405
BEESAT 3 07 May 03:26:32 03:29:02 16° 251° (WSW) 03:31:32 437.485
KKS-1 07 May 03:29:57 03:34:26 83° 260° (W) 03:38:56 437.445
RS-15 07 May 03:29:58 03:38:05 19° 31° (NNE) 03:46:13 29.354- 29.394
ITAMSAT 1 07 May 03:33:07 03:38:17 68° 285° (WNW) 03:43:26 435.822/435.867
STARS 07 May 03:33:38 03:37:56 52° 74° (ENE) 03:42:15 437.465
BEESAT 2 07 May 03:42:55 03:45:46 19° 250° (WSW) 03:48:37 435.950
AO-7 07 May 03:51:02 03:59:10 53° 103° (ESE) 04:07:15 29.400- 29.500
ISS 07 May 03:55:05 03:57:25 18° 128° (SE) 03:59:45 145.825
MOZHAYETS 4 07 May 04:08:24 04:12:49 49° 261° (W) 04:17:14
AIST 2 07 May 04:15:35 04:19:36 48° 59° (ENE) 04:23:36 435.215
DANDE 07 May 04:15:50 04:17:24 11° 277° (W) 04:18:59 436.750
Gurwin Techsat 1B 07 May 04:21:07 04:21:10 10° 298° (WNW) 04:21:13 435.225
CUBESAT XI-V 07 May 04:30:23 04:34:11 26° 70° (ENE) 04:38:00 437.345
SO-50 07 May 04:49:28 04:53:48 32° 112° (ESE) 04:58:10 436.795
HORYU 2 07 May 04:52:28 04:56:46 50° 100° (E) 05:01:02 437.375
YUBILEINY 07 May 05:06:14 05:14:43 53° 80° (E) 05:23:10 435.215
STARS 07 May 05:13:19 05:14:31 11° 267° (W) 05:15:43 437.465
BRITE-PL 07 May 05:29:43 05:32:45 15° 90° (E) 05:35:44 437.365/2234.400
ISS 07 May 05:30:46 05:33:42 30° 322° (NW) 05:36:38 145.825
Cosmos 2504 07 May 05:31:08 05:36:02 17° 71° (ENE) 05:41:06 435.465 / 435.565
CUTE-I 07 May 05:38:40 05:41:52 16° 94° (E) 05:45:04 437.470
RS-15 07 May 05:41:27 05:53:42 64° 57° (ENE) 06:05:48 29.354- 29.394
AO-7 07 May 05:44:31 05:51:29 31° 298° (WNW) 05:58:26 29.400- 29.500
Cosmos 2491 07 May 05:45:51 05:54:26 59° 91° (E) 06:03:03 435.465 / 435.565
AIST 2 07 May 05:56:23 05:57:36 11° 253° (WSW) 05:58:50 435.215
NOAA 15 07 May 06:03:17 06:08:23 45° 100° (E) 06:13:26 137.62
CUBESAT XI-V 07 May 06:07:45 06:11:27 24° 264° (W) 06:15:11 437.345
STRAND 1 07 May 06:09:17 06:13:29 26° 69° (ENE) 06:17:40 437.568
GOMX 1 07 May 06:15:38 06:19:19 19° 92° (E) 06:22:50 467.674
Cubesat XI-IV 07 May 06:23:05 06:28:12 46° 100° (E) 06:33:18 437.490
SO-50 07 May 06:30:10 06:34:16 26° 307° (NW) 06:38:24 436.795
HORYU 2 07 May 06:31:07 06:32:50 12° 294° (WNW) 06:34:34 437.375
NOAA 18 07 May 06:31:35 06:37:03 74° 104° (ESE) 06:42:28 137.9125
PHONESAT 2.4 07 May 06:41:29 06:44:25 38° 148° (SSE) 06:47:21 2401.200-2431.200
PRISM 07 May 06:56:38 06:58:10 12° 67° (ENE) 06:59:42 437.425
LilacSat-2 07 May 07:03:30 07:07:10 49° 285° (WNW) 07:10:49 437.200
YUBILEINY 07 May 07:04:01 07:10:56 27° 276° (W) 07:17:53 435.215
BRITE-PL 07 May 07:06:00 07:11:35 60° 286° (WNW) 07:16:55 437.365/2234.400
CUTE-I 07 May 07:16:59 07:22:08 50° 287° (WNW) 07:27:15 437.470
Cosmos 2504 07 May 07:22:09 07:29:59 77° 266° (W) 07:38:24 435.465 / 435.565
DOVE 4 07 May 07:23:23 07:28:07 45° 98° (E) 07:32:33 437.250
CINEMA 3 07 May 07:31:49 07:34:04 14° 92° (E) 07:36:16 145.822/145.860
CANX-2 07 May 07:39:25 07:42:27 19° 95° (E) 07:45:30 2200.000
NOAA 15 07 May 07:44:07 07:47:45 19° 294° (WNW) 07:51:22 137.62
Cosmos 2491 07 May 07:44:43 07:51:41 26° 288° (WNW) 07:58:43 435.465 / 435.565
STRAND 1 07 May 07:48:07 07:52:30 29° 263° (W) 07:56:54 437.568
M-CUBED/EXP-1 PRIME 07 May 07:50:17 07:53:59 80° 288° (WNW) 07:57:23 437.505
GOMX 1 07 May 07:52:34 07:57:32 41° 288° (WNW) 08:02:12 467.674
RS-15 07 May 07:54:58 08:05:24 34° 256° (WSW) 08:15:45 29.354- 29.394
Cubesat XI-IV 07 May 08:04:17 08:07:52 19° 294° (WNW) 08:11:27 437.490
AUBIESAT-1 07 May 08:04:29 08:08:06 63° 289° (WNW) 08:11:29 437.475
CUTE 1.7 + AOD 2 07 May 08:10:27 08:14:26 39° 99° (E) 08:18:24 437.475
NOAA 18 07 May 08:14:53 08:17:00 12° 298° (WNW) 08:19:06 137.9125
PHONESAT 2.4 07 May 08:18:20 08:21:16 36° 343° (NNW) 08:24:12 2401.200-2431.200
COMPASS 1 07 May 08:22:47 08:26:21 27° 97° (E) 08:29:56 437.405
SEEDS 07 May 08:28:25 08:32:29 47° 99° (E) 08:36:32 437.485
PRISM 07 May 08:29:10 08:33:03 43° 260° (W) 08:36:58 437.425
HO-68 07 May 08:35:13 08:42:23 74° 104° (ESE) 08:49:32 435.675
AAUSAT CUBESAT 2 07 May 08:48:13 08:52:12 45° 99° (E) 08:56:11 437.432
UNISAT 6 07 May 08:54:45 08:56:30 12° 66° (ENE) 08:58:15 437.425
UWE-3 07 May 09:01:40 09:05:23 30° 97° (E) 09:09:03 435.000/436.395/437.385
DOVE 4 07 May 09:02:24 09:05:19 16° 294° (WNW) 09:08:08 437.250
CINEMA 3 07 May 09:07:14 09:11:24 39° 287° (WNW) 09:15:23 145.822/145.860
TIGRISAT 07 May 09:09:10 09:12:07 17° 68° (ENE) 09:15:01 435.000
CANX-2 07 May 09:14:41 09:18:16 27° 288° (WNW) 09:21:51 2200.000
CUBEBUG 2 07 May 09:19:40 09:23:54 82° 100° (E) 09:28:02 437.445
ZACube-1 07 May 09:20:38 09:24:25 33° 98° (E) 09:28:10 437.345
DELFI C3 07 May 09:20:55 09:23:38 17° 95° (E) 09:26:20 145.870
ANTELSAT 07 May 09:34:07 09:38:16 34° 73° (ENE) 09:42:22 437.575/2403.000
HUMSAT D 07 May 09:41:09 09:42:51 12° 93° (E) 09:44:33 437.325/437.525
CUTE 1.7 + AOD 2 07 May 09:47:46 09:49:53 14° 292° (WNW) 09:52:01 437.475
Oscar 11 07 May 09:52:12 09:56:31 79° 282° (WNW) 10:00:49 145.826/435.025
PHONESAT 2.4 07 May 09:56:07 09:58:36 21° 360° (N) 10:01:04 2401.200-2431.200
COMPASS 1 07 May 09:58:46 10:01:42 19° 290° (WNW) 10:04:39 437.405
SEEDS 07 May 10:06:19 10:07:44 12° 293° (WNW) 10:09:09 437.485
QB50P2 07 May 10:06:24 10:08:34 14° 67° (ENE) 10:10:44 145.880/145.840
POLYITAN 1 07 May 10:08:32 10:10:48 14° 68° (ENE) 10:13:02 437.675
POPSAT HIP 1 07 May 10:09:44 10:11:58 14° 68° (ENE) 10:14:12 437.405
AIST 1 07 May 10:10:55 10:14:28 23° 77° (ENE) 10:18:00
AO-85 07 May 10:11:25 10:16:02 29° 110° (ESE) 10:20:41 145.980
FUNcube-1 07 May 10:11:26 10:15:30 55° 285° (WNW) 10:19:30 145.935
QB50P1 07 May 10:12:10 10:14:39 15° 68° (ENE) 10:17:08 145.935-145.965
HO-68 07 May 10:24:46 10:29:19 18° 300° (WNW) 10:33:53 435.675
AAUSAT CUBESAT 2 07 May 10:25:43 10:27:15 12° 293° (WNW) 10:28:47 437.432
UNISAT 6 07 May 10:28:11 10:32:43 55° 259° (W) 10:37:12 437.425
UWE-3 07 May 10:38:56 10:41:34 16° 291° (WNW) 10:44:10 435.000/436.395/437.385
NANOSAT C BR1 07 May 10:42:29 10:46:19 33° 72° (ENE) 10:50:09 145.865
TIGRISAT 07 May 10:44:09 10:48:28 38° 261° (W) 10:52:44 435.000
GONETS M04 07 May 10:51:41 11:00:17 59° 81° (E) 11:08:47
CUBEBUG 1 07 May 10:53:14 10:53:52 10° 92° (E) 10:54:29 437.445
DELFI C3 07 May 10:55:07 10:58:28 26° 288° (WNW) 11:01:50 145.870
ZACube-1 07 May 10:58:01 11:00:23 15° 292° (WNW) 11:02:44 437.345
50 SAT 07 May 11:02:00 11:03:58 14° 95° (E) 11:05:56 437.505
UKube-1 07 May 11:09:25 11:10:39 11° 93° (E) 11:11:54 .
